TimeEST,TemperatureF,Dew PointF,Humidity,Sea Level PressureIn,VisibilityMPH,Wind Direction,Wind SpeedMPH,Gust SpeedMPH,PrecipitationIn,Events,Conditions,WindDirDegrees,DateUTC
12:53 AM,15.1,1.0,54,30.53,10.0,North,10.4,-,N/A,,Clear,360,2014-03-06 05:53:00
1:53 AM,12.9,-0.9,54,30.55,10.0,North,8.1,-,N/A,,Clear,10,2014-03-06 06:53:00
2:53 AM,12.0,-0.9,56,30.55,10.0,NE,4.6,-,N/A,,Clear,50,2014-03-06 07:53:00
3:53 AM,10.9,-0.9,59,30.57,10.0,NNE,8.1,-,N/A,,Clear,20,2014-03-06 08:53:00
4:53 AM,10.0,-2.0,58,30.59,10.0,North,8.1,-,N/A,,Clear,360,2014-03-06 09:53:00
5:53 AM,9.0,-2.9,59,30.61,10.0,North,8.1,-,N/A,,Clear,10,2014-03-06 10:53:00
6:53 AM,9.0,-4.0,56,30.62,10.0,NNE,3.5,-,N/A,,Clear,30,2014-03-06 11:53:00
7:53 AM,10.9,-4.0,51,30.65,10.0,North,9.2,-,N/A,,Clear,10,2014-03-06 12:53:00
8:53 AM,14.0,-2.9,47,30.66,10.0,NNE,13.8,-,N/A,,Clear,30,2014-03-06 13:53:00
9:53 AM,17.1,-2.9,41,30.65,10.0,NNE,11.5,-,N/A,,Clear,30,2014-03-06 14:53:00
10:53 AM,19.0,-2.9,38,30.64,10.0,NNE,8.1,-,N/A,,Clear,20,2014-03-06 15:53:00
11:53 AM,21.0,-2.9,35,30.63,10.0,Variable,3.5,-,N/A,,Clear,0,2014-03-06 16:53:00
12:53 PM,23.0,-2.9,32,30.58,10.0,Calm,Calm,-,N/A,,Clear,0,2014-03-06 17:53:00
1:53 PM,25.0,-4.0,28,30.57,10.0,Calm,Calm,-,N/A,,Clear,0,2014-03-06 18:53:00
2:53 PM,28.0,-0.0,30,30.55,10.0,WNW,4.6,-,N/A,,Clear,290,2014-03-06 19:53:00
3:53 PM,28.9,-0.9,28,30.53,10.0,Calm,Calm,-,N/A,,Clear,0,2014-03-06 20:53:00
4:53 PM,28.9,-0.0,29,30.53,10.0,West,3.5,-,N/A,,Clear,260,2014-03-06 21:53:00
5:53 PM,26.1,1.9,35,30.53,10.0,WSW,3.5,-,N/A,,Clear,250,2014-03-06 22:53:00
6:53 PM,24.1,1.0,37,30.53,10.0,Calm,Calm,-,N/A,,Clear,0,2014-03-06 23:53:00
7:53 PM,19.0,3.9,52,30.53,10.0,Calm,Calm,-,N/A,,Clear,0,2014-03-07 00:53:00
8:53 PM,16.0,5.0,62,30.54,10.0,Calm,Calm,-,N/A,,Clear,0,2014-03-07 01:53:00
9:53 PM,14.0,3.9,64,30.52,10.0,Calm,Calm,-,N/A,,Clear,0,2014-03-07 02:53:00
10:53 PM,12.9,3.9,67,30.51,10.0,Calm,Calm,-,N/A,,Clear,0,2014-03-07 03:53:00
11:53 PM,12.0,3.9,70,30.49,10.0,Calm,Calm,-,N/A,,Clear,0,2014-03-07 04:53:00